Year,Month,Day,Hour,Minute,Value (Times are PST for temperature in C)
2018,05,05,08,30,11.60
2018,05,05,08,31,11.60
2018,05,05,08,32,11.70
2018,05,05,08,33,11.70
2018,05,05,08,34,11.70
2018,05,05,08,35,11.70
2018,05,05,08,36,11.70
2018,05,05,08,37,11.70
2018,05,05,08,38,11.70
2018,05,05,08,39,11.70
2018,05,05,08,40,11.70
2018,05,05,08,41,11.70
2018,05,05,08,42,11.80
2018,05,05,08,43,11.80
2018,05,05,08,44,11.80
2018,05,05,08,45,11.90
2018,05,05,08,46,11.90
2018,05,05,08,47,12.00
2018,05,05,08,48,12.10
2018,05,05,08,49,12.10
2018,05,05,08,50,12.10
2018,05,05,08,51,12.20
2018,05,05,08,52,12.20
2018,05,05,08,53,12.20
2018,05,05,08,54,12.20
2018,05,05,08,55,12.20
2018,05,05,08,56,12.30
2018,05,05,08,57,12.30
2018,05,05,08,58,12.40
2018,05,05,08,59,12.50
2018,05,05,09,00,12.60
2018,05,05,09,01,12.60
2018,05,05,09,02,12.80
2018,05,05,09,03,12.90
2018,05,05,09,04,12.90
2018,05,05,09,05,12.90
2018,05,05,09,06,12.90
2018,05,05,09,07,12.90
2018,05,05,09,08,12.90
2018,05,05,09,09,12.90
2018,05,05,09,10,12.90
2018,05,05,09,11,12.90
2018,05,05,09,12,13.00
2018,05,05,09,13,13.00
2018,05,05,09,14,13.00
2018,05,05,09,15,13.00
2018,05,05,09,16,12.90
2018,05,05,09,17,12.90
2018,05,05,09,18,12.80
2018,05,05,09,19,12.70
2018,05,05,09,20,12.60
2018,05,05,09,21,12.60
2018,05,05,09,22,12.60
2018,05,05,09,23,12.60
2018,05,05,09,24,12.50
2018,05,05,09,25,12.60
2018,05,05,09,26,12.50
2018,05,05,09,27,12.40
2018,05,05,09,28,12.40
2018,05,05,09,29,12.40
2018,05,05,09,30,12.40
2018,05,05,09,31,12.40
2018,05,05,09,32,12.40
2018,05,05,09,33,12.50
2018,05,05,09,34,12.50
2018,05,05,09,35,12.60
2018,05,05,09,36,12.60
2018,05,05,09,37,12.60
2018,05,05,09,38,12.60
2018,05,05,09,39,12.60
2018,05,05,09,40,12.70
2018,05,05,09,41,12.60
2018,05,05,09,42,12.50
2018,05,05,09,43,12.50
2018,05,05,09,44,12.50
2018,05,05,09,45,12.60
2018,05,05,09,46,12.70
2018,05,05,09,47,12.70
2018,05,05,09,48,12.70
2018,05,05,09,49,12.70
2018,05,05,09,50,12.70
2018,05,05,09,51,12.80
2018,05,05,09,52,12.80
2018,05,05,09,53,12.80
2018,05,05,09,54,12.90
2018,05,05,09,55,12.90
2018,05,05,09,56,13.00
2018,05,05,09,57,13.00
2018,05,05,09,58,13.00
2018,05,05,09,59,13.10
2018,05,05,10,00,13.10
2018,05,05,10,01,13.10
2018,05,05,10,02,13.10
2018,05,05,10,03,13.10
2018,05,05,10,04,13.10
2018,05,05,10,05,13.00
2018,05,05,10,06,13.00
2018,05,05,10,07,13.10
2018,05,05,10,08,13.10
2018,05,05,10,09,13.20
2018,05,05,10,10,13.20
2018,05,05,10,11,13.20
2018,05,05,10,12,13.20
2018,05,05,10,13,13.20
2018,05,05,10,14,13.20
2018,05,05,10,15,13.30
2018,05,05,10,16,13.30
2018,05,05,10,17,13.40
2018,05,05,10,18,13.40
2018,05,05,10,19,13.50
2018,05,05,10,20,13.50
2018,05,05,10,21,13.50
2018,05,05,10,22,13.50
2018,05,05,10,23,13.50
2018,05,05,10,24,13.40
2018,05,05,10,25,13.40
2018,05,05,10,26,13.40
2018,05,05,10,27,13.40
2018,05,05,10,28,13.40
2018,05,05,10,29,13.40
2018,05,05,10,30,13.40
2018,05,05,10,31,13.40
2018,05,05,10,32,13.50
2018,05,05,10,33,13.50
2018,05,05,10,34,13.50
2018,05,05,10,35,13.50
2018,05,05,10,36,13.40
2018,05,05,10,37,13.40
2018,05,05,10,38,13.30
2018,05,05,10,39,13.30
2018,05,05,10,40,13.20
2018,05,05,10,41,13.20
2018,05,05,10,42,13.20
2018,05,05,10,43,13.20
2018,05,05,10,44,13.20
2018,05,05,10,45,13.20
2018,05,05,10,46,13.20
2018,05,05,10,47,13.20
2018,05,05,10,48,13.10
2018,05,05,10,49,13.10
2018,05,05,10,50,13.10
2018,05,05,10,51,13.20
2018,05,05,10,52,13.30
2018,05,05,10,53,13.40
2018,05,05,10,54,13.40
2018,05,05,10,55,13.50
2018,05,05,10,56,13.50
2018,05,05,10,57,13.60
2018,05,05,10,58,13.60
2018,05,05,10,59,13.70
2018,05,05,11,00,13.70
2018,05,05,11,01,13.70
2018,05,05,11,02,13.70
2018,05,05,11,03,13.60
2018,05,05,11,04,13.50
2018,05,05,11,05,13.50
2018,05,05,11,06,13.40
2018,05,05,11,07,13.30
2018,05,05,11,08,13.30
2018,05,05,11,09,13.30
2018,05,05,11,10,13.30
2018,05,05,11,11,13.30
2018,05,05,11,12,13.30
2018,05,05,11,13,13.40
2018,05,05,11,14,13.40
2018,05,05,11,15,13.60
2018,05,05,11,16,13.70
2018,05,05,11,17,13.90
2018,05,05,11,18,14.00
2018,05,05,11,19,14.00
2018,05,05,11,20,14.10
2018,05,05,11,21,14.20
2018,05,05,11,22,14.20
2018,05,05,11,23,14.10
2018,05,05,11,24,14.10
2018,05,05,11,25,14.10
2018,05,05,11,26,14.00
2018,05,05,11,27,14.00
2018,05,05,11,28,13.90
2018,05,05,11,29,13.90
2018,05,05,11,30,13.80
2018,05,05,11,31,13.80
2018,05,05,11,32,13.80
2018,05,05,11,33,13.90
2018,05,05,11,34,13.90
2018,05,05,11,35,14.00
2018,05,05,11,36,14.10
2018,05,05,11,37,14.10
2018,05,05,11,38,14.10
2018,05,05,11,39,14.10
2018,05,05,11,40,14.00
2018,05,05,11,41,14.00
2018,05,05,11,42,14.00
2018,05,05,11,43,14.00
2018,05,05,11,44,14.00
2018,05,05,11,45,14.00
2018,05,05,11,46,14.00
2018,05,05,11,47,14.10
2018,05,05,11,48,14.20
2018,05,05,11,49,14.30
2018,05,05,11,50,14.40
2018,05,05,11,51,14.50
2018,05,05,11,52,14.60
2018,05,05,11,53,14.70
2018,05,05,11,54,14.70
2018,05,05,11,55,14.70
2018,05,05,11,56,14.60
2018,05,05,11,57,14.60
2018,05,05,11,58,14.50
2018,05,05,11,59,14.50
2018,05,05,12,00,14.50
2018,05,05,12,01,14.60
2018,05,05,12,02,14.60
2018,05,05,12,03,14.70
2018,05,05,12,04,14.70
2018,05,05,12,05,14.70
2018,05,05,12,06,14.70
2018,05,05,12,07,14.80
2018,05,05,12,08,14.80
2018,05,05,12,09,14.90
2018,05,05,12,10,15.00
2018,05,05,12,11,15.10
2018,05,05,12,12,15.10
2018,05,05,12,13,15.10
2018,05,05,12,14,15.10
2018,05,05,12,15,15.10
2018,05,05,12,16,15.20
2018,05,05,12,17,15.20
2018,05,05,12,18,15.30
2018,05,05,12,19,15.40
2018,05,05,12,20,15.50
2018,05,05,12,21,15.60
2018,05,05,12,22,15.80
2018,05,05,12,23,15.90
2018,05,05,12,24,16.10
2018,05,05,12,25,16.30
2018,05,05,12,26,16.30
2018,05,05,12,27,16.20
2018,05,05,12,28,16.10
2018,05,05,12,29,16.00
2018,05,05,12,30,15.90
2018,05,05,12,31,15.80
2018,05,05,12,32,15.90
2018,05,05,12,33,15.90
2018,05,05,12,34,16.00
2018,05,05,12,35,16.00
2018,05,05,12,36,16.00
2018,05,05,12,37,16.00
2018,05,05,12,38,16.00
2018,05,05,12,39,16.00
2018,05,05,12,40,15.90
2018,05,05,12,41,15.80
2018,05,05,12,42,15.80
2018,05,05,12,43,15.90
2018,05,05,12,44,15.90
2018,05,05,12,45,16.00
2018,05,05,12,46,16.10
2018,05,05,12,47,16.10
2018,05,05,12,48,16.00
2018,05,05,12,49,16.00
2018,05,05,12,50,16.00
2018,05,05,12,51,16.10
2018,05,05,12,52,16.10
2018,05,05,12,53,16.00
2018,05,05,12,54,16.00
2018,05,05,12,55,15.90
2018,05,05,12,56,15.90
2018,05,05,12,57,16.00
2018,05,05,12,58,16.10
2018,05,05,12,59,16.10
2018,05,05,13,00,16.10
2018,05,05,13,01,16.10
2018,05,05,13,02,16.10
2018,05,05,13,03,16.20
2018,05,05,13,04,16.20
2018,05,05,13,05,16.30
2018,05,05,13,06,16.50
2018,05,05,13,07,16.70
2018,05,05,13,08,16.80
2018,05,05,13,09,16.80
2018,05,05,13,10,16.90
2018,05,05,13,11,16.80
2018,05,05,13,12,16.80
2018,05,05,13,13,16.70
2018,05,05,13,14,16.80
2018,05,05,13,15,16.70
2018,05,05,13,16,16.60
2018,05,05,13,17,16.30
2018,05,05,13,18,16.10
2018,05,05,13,19,16.00
2018,05,05,13,20,15.90
2018,05,05,13,21,15.80
2018,05,05,13,22,15.90
2018,05,05,13,23,15.90
2018,05,05,13,24,16.00
2018,05,05,13,25,16.10
2018,05,05,13,26,16.20
2018,05,05,13,27,16.30
2018,05,05,13,28,16.40
2018,05,05,13,29,16.50
2018,05,05,13,30,16.50
2018,05,05,13,31,16.50
2018,05,05,13,32,16.50
2018,05,05,13,33,16.40
2018,05,05,13,34,16.40
2018,05,05,13,35,16.30
2018,05,05,13,36,16.30
2018,05,05,13,37,16.40
2018,05,05,13,38,16.40
2018,05,05,13,39,16.50
2018,05,05,13,40,16.60
2018,05,05,13,41,16.60
2018,05,05,13,42,16.60
2018,05,05,13,43,16.60
2018,05,05,13,44,16.60
2018,05,05,13,45,16.50
2018,05,05,13,46,16.50
2018,05,05,13,47,16.50
2018,05,05,13,48,16.40
2018,05,05,13,49,16.40
2018,05,05,13,50,16.50
2018,05,05,13,51,16.60
2018,05,05,13,52,16.70
2018,05,05,13,53,16.80
2018,05,05,13,54,16.90
2018,05,05,13,55,17.00
2018,05,05,13,56,17.20
2018,05,05,13,57,17.40
2018,05,05,13,58,17.50
2018,05,05,13,59,17.60
2018,05,05,14,00,17.70
2018,05,05,14,01,17.70
2018,05,05,14,02,17.60
2018,05,05,14,03,17.70
2018,05,05,14,04,17.70
2018,05,05,14,05,17.70
2018,05,05,14,06,17.70
2018,05,05,14,07,17.80
2018,05,05,14,08,17.80
2018,05,05,14,09,17.80
2018,05,05,14,10,17.80
2018,05,05,14,11,17.70
2018,05,05,14,12,17.80
2018,05,05,14,13,17.70
2018,05,05,14,14,17.70
2018,05,05,14,15,17.70
2018,05,05,14,16,17.80
2018,05,05,14,17,17.90
2018,05,05,14,18,18.00
2018,05,05,14,19,18.10
2018,05,05,14,20,18.20
2018,05,05,14,21,18.10
2018,05,05,14,22,18.10
2018,05,05,14,23,18.10
2018,05,05,14,24,18.10
2018,05,05,14,25,18.10
2018,05,05,14,26,18.00
2018,05,05,14,27,18.00
2018,05,05,14,28,18.00
2018,05,05,14,29,18.00
2018,05,05,14,30,18.10
2018,05,05,14,31,18.10
2018,05,05,14,32,18.00
2018,05,05,14,33,17.90
2018,05,05,14,34,17.90
2018,05,05,14,35,17.90
2018,05,05,14,36,17.90
2018,05,05,14,37,17.80
2018,05,05,14,38,17.90
2018,05,05,14,39,17.90
2018,05,05,14,40,17.90
2018,05,05,14,41,17.90
2018,05,05,14,42,17.90
2018,05,05,14,43,17.80
2018,05,05,14,44,17.80
2018,05,05,14,45,17.80
2018,05,05,14,46,17.80
2018,05,05,14,47,17.80
2018,05,05,14,48,17.70
2018,05,05,14,49,17.70
2018,05,05,14,50,17.70
2018,05,05,14,51,17.70
2018,05,05,14,52,17.70
2018,05,05,14,53,17.60
2018,05,05,14,54,17.40
2018,05,05,14,55,17.30
2018,05,05,14,56,17.10
2018,05,05,14,57,17.00
2018,05,05,14,58,16.80
2018,05,05,14,59,16.80
2018,05,05,15,00,16.70
2018,05,05,15,01,16.70
2018,05,05,15,02,16.70
2018,05,05,15,03,16.80
2018,05,05,15,04,16.90
2018,05,05,15,05,17.00
2018,05,05,15,06,17.20
2018,05,05,15,07,17.40
2018,05,05,15,08,17.60
2018,05,05,15,09,17.80
2018,05,05,15,10,17.90
2018,05,05,15,11,18.00
2018,05,05,15,12,18.20
2018,05,05,15,13,18.30
2018,05,05,15,14,18.30
2018,05,05,15,15,18.40
2018,05,05,15,16,18.50
2018,05,05,15,17,18.60
2018,05,05,15,18,18.70
2018,05,05,15,19,18.70
2018,05,05,15,20,18.60
2018,05,05,15,21,18.60
2018,05,05,15,22,18.70
2018,05,05,15,23,18.70
2018,05,05,15,24,18.70
2018,05,05,15,25,18.70
2018,05,05,15,26,18.60
2018,05,05,15,27,18.60
2018,05,05,15,28,18.50
2018,05,05,15,29,18.40
2018,05,05,15,30,18.40
2018,05,05,15,31,18.40
2018,05,05,15,32,18.40
2018,05,05,15,33,18.40
2018,05,05,15,34,18.50
2018,05,05,15,35,18.50
2018,05,05,15,36,18.50
2018,05,05,15,37,18.40
2018,05,05,15,38,18.30
2018,05,05,15,39,18.10
2018,05,05,15,40,18.10
2018,05,05,15,41,18.20
2018,05,05,15,42,18.20
2018,05,05,15,43,18.10
2018,05,05,15,44,18.10
2018,05,05,15,45,18.10
2018,05,05,15,46,18.00
2018,05,05,15,47,17.90
2018,05,05,15,48,17.90
2018,05,05,15,49,17.90
2018,05,05,15,50,17.90
2018,05,05,15,51,17.90
2018,05,05,15,52,18.00
2018,05,05,15,53,18.20
2018,05,05,15,54,18.20
2018,05,05,15,55,18.20
2018,05,05,15,56,18.10
2018,05,05,15,57,18.10
2018,05,05,15,58,18.00
2018,05,05,15,59,18.00
2018,05,05,16,00,18.00
2018,05,05,16,01,18.10
2018,05,05,16,02,18.10
2018,05,05,16,03,18.10
2018,05,05,16,04,18.20
2018,05,05,16,05,18.20
2018,05,05,16,06,18.20
2018,05,05,16,07,18.10
2018,05,05,16,08,18.10
2018,05,05,16,09,18.20
2018,05,05,16,10,18.20
2018,05,05,16,11,18.30
2018,05,05,16,12,18.30
2018,05,05,16,13,18.30
2018,05,05,16,14,18.30
2018,05,05,16,15,18.30
2018,05,05,16,16,18.30
2018,05,05,16,17,18.40
2018,05,05,16,18,18.50
2018,05,05,16,19,18.70
2018,05,05,16,20,18.70
2018,05,05,16,21,18.70
2018,05,05,16,22,18.70
2018,05,05,16,23,18.80
2018,05,05,16,24,18.90
2018,05,05,16,25,18.80
2018,05,05,16,26,18.80
2018,05,05,16,27,18.80
2018,05,05,16,28,18.80
2018,05,05,16,29,18.80
2018,05,05,16,30,18.70
2018,05,05,16,31,18.60
2018,05,05,16,32,18.50
2018,05,05,16,33,18.50
2018,05,05,16,34,18.60
2018,05,05,16,35,18.70
2018,05,05,16,36,18.80
2018,05,05,16,37,18.90
2018,05,05,16,38,19.00
2018,05,05,16,39,19.00
2018,05,05,16,40,19.10
2018,05,05,16,41,19.20
2018,05,05,16,42,19.30
2018,05,05,16,43,19.40
2018,05,05,16,44,19.40
2018,05,05,16,45,19.50
2018,05,05,16,46,19.70
2018,05,05,16,47,19.80
2018,05,05,16,48,19.80
2018,05,05,16,49,19.80
2018,05,05,16,50,19.80
2018,05,05,16,51,19.70
2018,05,05,16,52,19.70
2018,05,05,16,53,19.70
2018,05,05,16,54,19.70
2018,05,05,16,55,19.60
2018,05,05,16,56,19.60
2018,05,05,16,57,19.60
2018,05,05,16,58,19.60
2018,05,05,16,59,19.50
2018,05,05,17,00,19.50
2018,05,05,17,01,19.50
2018,05,05,17,02,19.50
2018,05,05,17,03,19.40
2018,05,05,17,04,19.30
2018,05,05,17,05,19.30
2018,05,05,17,06,19.20
2018,05,05,17,07,19.20
2018,05,05,17,08,19.10
2018,05,05,17,09,19.10
2018,05,05,17,10,19.10
2018,05,05,17,11,19.10
2018,05,05,17,12,19.10
2018,05,05,17,13,19.10
2018,05,05,17,14,19.10
2018,05,05,17,15,19.00
2018,05,05,17,16,19.00
2018,05,05,17,17,19.00
2018,05,05,17,18,19.10
2018,05,05,17,19,19.20
2018,05,05,17,20,19.20
2018,05,05,17,21,19.20
2018,05,05,17,22,19.20
2018,05,05,17,23,19.20
2018,05,05,17,24,19.20
2018,05,05,17,25,19.20
2018,05,05,17,26,19.20
2018,05,05,17,27,19.20
2018,05,05,17,28,19.30
2018,05,05,17,29,19.40
2018,05,05,17,30,19.50
2018,05,05,17,31,19.60
2018,05,05,17,32,19.60
2018,05,05,17,33,19.70
2018,05,05,17,34,19.80
2018,05,05,17,35,19.80
2018,05,05,17,36,19.90
2018,05,05,17,37,19.80
2018,05,05,17,38,19.80
2018,05,05,17,39,19.70
2018,05,05,17,40,19.60
2018,05,05,17,41,19.60
2018,05,05,17,42,19.60
2018,05,05,17,43,19.70
2018,05,05,17,44,19.70
2018,05,05,17,45,19.80
2018,05,05,17,46,19.80
2018,05,05,17,47,19.90
2018,05,05,17,48,19.90
2018,05,05,17,49,19.90
2018,05,05,17,50,19.90
2018,05,05,17,51,19.90
2018,05,05,17,52,19.90
2018,05,05,17,53,19.90
2018,05,05,17,54,19.80
2018,05,05,17,55,19.80
2018,05,05,17,56,19.80
2018,05,05,17,57,19.80
2018,05,05,17,58,19.80
2018,05,05,17,59,19.80
2018,05,05,18,00,19.90
2018,05,05,18,01,20.00
2018,05,05,18,02,20.00
2018,05,05,18,03,20.10
2018,05,05,18,04,20.20
2018,05,05,18,05,20.30
2018,05,05,18,06,20.30
2018,05,05,18,07,20.40
2018,05,05,18,08,20.40
2018,05,05,18,09,20.40
2018,05,05,18,10,20.40
2018,05,05,18,11,20.40
2018,05,05,18,12,20.40
2018,05,05,18,13,20.40
2018,05,05,18,14,20.40
2018,05,05,18,15,20.50
2018,05,05,18,16,20.60
2018,05,05,18,17,20.60
2018,05,05,18,18,20.60
2018,05,05,18,19,20.60
2018,05,05,18,20,20.60
2018,05,05,18,21,20.60
2018,05,05,18,22,20.60
2018,05,05,18,23,20.60
2018,05,05,18,24,20.50
2018,05,05,18,25,20.50
2018,05,05,18,26,20.50
2018,05,05,18,27,20.50
2018,05,05,18,28,20.60
2018,05,05,18,29,20.60
2018,05,05,18,30,20.50
2018,05,05,18,31,20.40
2018,05,05,18,32,20.40
2018,05,05,18,33,20.40
2018,05,05,18,34,20.40
2018,05,05,18,35,20.40
2018,05,05,18,36,20.30
2018,05,05,18,37,20.30
2018,05,05,18,38,20.30
2018,05,05,18,39,20.20
2018,05,05,18,40,20.20
2018,05,05,18,41,20.20
2018,05,05,18,42,20.20
2018,05,05,18,43,20.20
2018,05,05,18,44,20.20
2018,05,05,18,45,20.20
2018,05,05,18,46,20.20
2018,05,05,18,47,20.20
2018,05,05,18,48,20.20
2018,05,05,18,49,20.20
2018,05,05,18,50,20.30
2018,05,05,18,51,20.20
2018,05,05,18,52,20.20
2018,05,05,18,53,20.20
2018,05,05,18,54,20.20
2018,05,05,18,55,20.30
2018,05,05,18,56,20.30
2018,05,05,18,57,20.30
2018,05,05,18,58,20.30
2018,05,05,18,59,20.30
2018,05,05,19,00,20.30
2018,05,05,19,01,20.30
2018,05,05,19,02,20.30
2018,05,05,19,03,20.30
2018,05,05,19,04,20.30
2018,05,05,19,05,20.30
2018,05,05,19,06,20.30
2018,05,05,19,07,20.30
2018,05,05,19,08,20.30
2018,05,05,19,09,20.30
2018,05,05,19,10,20.30
2018,05,05,19,11,20.30
2018,05,05,19,12,20.30
2018,05,05,19,13,20.30
